Location: Big Bend
(41.8409°N, 79.0042°W)
Time: 09:40:10
(UTC+00:00)

ACS3 Solar Sail - Visible Passes

Search period start: 05 October 2024 00:00
Search period end: 15 October 2024 00:00
Orbit: 962 x 1037 km, 97.4° (Epoch: 05 October)

Date Brightness Start Highest point End Pass type
(mag) Time Alt. Az. Time Alt. Az. Time Alt. Az.
05 Oct 2.0 00:45:12 39° ESE 00:47:12 53° ENE 00:53:21 10° N visible
05 Oct 3.6 02:30:23 25° WSW 02:31:23 26° W 02:36:37 10° NW visible
05 Oct 3.4 23:32:30 10° E 23:36:02 16° ENE 23:39:42 10° NNE visible
06 Oct 1.8 01:17:41 58° SSE 01:19:05 90° WSW 01:25:30 10° NNW visible
06 Oct 4.3 03:02:52 13° W 03:03:49 14° W 03:06:54 10° WNW visible
07 Oct 2.8 00:04:58 21° E 00:07:33 28° ENE 00:12:46 10° N visible
07 Oct 2.5 01:50:09 47° SW 01:51:08 51° W 01:57:19 10° NNW visible
08 Oct 2.1 00:37:26 38° ESE 00:39:13 48° ENE 00:45:15 10° N visible
08 Oct 3.4 02:22:36 28° WSW 02:23:19 29° W 02:28:43 10° NW visible
08 Oct 3.4 23:24:48 10° E 23:28:03 15° ENE 23:31:17 10° NNE visible
09 Oct 1.7 01:09:52 62° SSE 01:11:02 83° ENE 01:17:24 10° N visible
09 Oct 4.2 02:55:02 15° W 02:55:39 15° W 02:59:14 10° NW visible
09 Oct 2.9 23:57:06 20° E 23:59:29 25° ENE 00:04:29 10° NNE visible
10 Oct 2.3 01:42:17 54° SW 01:43:00 57° W 01:49:14 10° NNW visible
11 Oct 2.2 00:29:31 37° ESE 00:31:05 43° ENE 00:36:59 10° N visible
11 Oct 3.3 02:14:41 31° W 02:15:05 31° W 02:20:40 10° NNW visible
11 Oct 3.5 23:17:14 10° E 23:19:56 13° ENE 23:22:38 10° NNE visible
12 Oct 1.7 01:01:54 64° SE 01:02:50 76° ENE 01:09:09 10° N visible
12 Oct 4.1 02:47:04 17° W 02:47:21 17° W 02:51:20 10° NW visible
12 Oct 3.0 23:49:05 19° E 23:51:18 23° ENE 23:56:02 10° NNE visible
13 Oct 2.2 01:34:16 61° WSW 01:34:42 63° W 01:40:58 10° NNW visible
14 Oct 2.3 00:21:27 35° E 00:22:49 39° ENE 00:28:34 10° N visible
14 Oct 3.1 02:06:37 35° W 02:06:44 35° W 02:12:26 10° NNW visible
14 Oct 3.6 23:09:42 10° ENE 23:11:41 12° NE 23:13:39 10° NE visible
